Regional Weather Roundup
Issued by NWS Wakefield, VA

Home | Current Version | Previous Version | Graphics & Text | Print | Product List | Glossary On
Versions: 1 2 3 4 5 6 7 8 9 10 11 12 13 14 15 16 17 18 19 20 21 22 23 24 25 26 27
000
ASUS41 KAKQ 040815
RWRAKQ

REGIONAL WEATHER ROUNDUP
NATIONAL WEATHER SERVICE WAKEFIELD VA
300 AM EST SUN DEC 04 2016

Note: "fair" indicates few or no clouds below 12,000 feet with no
significant weather and/or obstructions to visibility. * = Denotes
station may not report precipitation (e.g., rain,snow,etc.),
thunder or fog.

VAZ042-051-052>054-056-040900-
NORTHERN VIRGINIA

CITY           SKY/WX    TMP DP  RH WIND       PRES   REMARKS
WASH NATIONAL  CLOUDY    40  28  62 NW13      30.29S
DULLES         CLOUDY    36  26  67 NW6       30.29R
FORT BELVOIR   CLOUDY    34  27  75 CALM      30.28S
QUANTICO       CLOUDY    36  27  69 NW9       30.30S
FREDERICKSBRG* CLOUDY    33  30  91 W3        30.29F
STAFFORD*      PTCLDY    29  29  97 CALM      30.33F
WARRENTON      CLOUDY    30  24  75 CALM      30.28F
CULPEPER*      CLOUDY    36  28  71 CALM      30.29F
MANASSAS*      PTCLDY    28  28 100 SE3       30.29S
LEESBURG*      PTCLDY    37  32  81 NW10      30.29F
WINCHESTER     CLOUDY    34  27  75 W6        30.28F
FRONT ROYAL*   FAIR      32  28  86 S6        30.28F
LURAY*         FAIR      30  30 100 SE3       30.29S
$$

VAZ048-049-060>072-079>083-040900-
CENTRAL AND SOUTH CENTRAL VIRGINIA

CITY           SKY/WX    TMP DP  RH WIND       PRES   REMARKS
RICHMOND       NOT AVBL
CHESTERFIELD*  FAIR      30  12  47 N3        30.29F
PETERSBURG*    CLOUDY    31  28  92 CALM      30.29F
HANOVER        PTCLDY    30  27  88 CALM      30.30F
TAPPAHANNOCK*  PTCLDY    31  30  95 CALM      30.29S
QUINTON*       FAIR      32  29  87 CALM      30.28F
CHARLOTTSVILLE CLOUDY    34  27  75 CALM      30.28S
GORDONSVILLE*  FAIR      29  28  96 CALM      30.29S
ORANGE*          N/A     32  28  86 CALM      30.30F
LOUISA*        CLOUDY    36  30  80 CALM      30.27F
BUMPASS*       FAIR      38  28  68 N5        30.28F
FARMVILLE*     PTCLDY    35  32  88 CALM      30.28S
CREWE*         FAIR      33  31  94 CALM      30.28S
FORT PICKETT*  FAIR      36  25  64 NE3       30.28S
CHASE CITY*    FAIR      37  29  75 CALM      30.28S
CLARKSVILLE*   FAIR      37  32  81 NE3       30.28R
SOUTH HILL*    CLOUDY    36  31  82 CALM      30.33S
LAWRENCEVILLE* FAIR      37  29  75 CALM      30.27S
EMPORIA*       CLOUDY    34  30  86 CALM      30.30S
$$

VAZ088>098-040900-
SOUTHEAST VIRGINIA

CITY           SKY/WX    TMP DP  RH WIND       PRES   REMARKS
NORFOLK        CLOUDY    43  34  70 NW3       30.27S
VIRGINIA BEACH MOCLDY    40  33  76 N7        30.26S
NORFOLK NAVAL  CLOUDY    42  32  67 N6        30.28F
WEST POINT*    CLEAR     33  29  85 CALM      30.30F
SALUDA*        FAIR      39  32  76 NW5       30.28S
NEWPORT NEWS   CLEAR     31  29  92 CALM      30.27F
LANGLEY AFB    MOCLDY    36  30  79 NW5       30.26F
FORT EUSTIS    MOCLDY    39  30  69 N3        30.25F
WILLIAMSBURG*  CLEAR     37  30  75 CALM      30.28F
HR EXEC AP*    FAIR      32  28  86 CALM      30.26F
FRANKLIN*      PTCLDY    36  31  81 CALM      30.28F
US460-WAKEFLD  CLOUDY    32  31  96 CALM      30.27F
$$

VAZ020-022-025-037-045-040900-
WEST CENTRAL AND SOUTHWEST VIRGINIA

CITY           SKY/WX    TMP DP  RH WIND       PRES   REMARKS
STAUNTON*      MOCLDY    29  26  88 CALM      30.29S
WAYNESBORO*    FAIR      29  26  86 CALM      30.26S
HOT SPRINGS VA CLOUDY    27  27 100 SE3       30.12F
LYNCHBURG      CLOUDY    36  29  75 NE6       30.28S
DANVILLE       MOCLDY    39  30  70 N5        30.27R
SOUTH BOSTON*  FAIR      36  32  85 NE3       30.28R
MARTINSVILLE   PTCLDY    37  28  68 CALM      30.28F
ROANOKE        CLOUDY    38  27  64 CALM      30.27F
BLACKSBURG     CLOUDY    33  29  85 CALM      30.25S
DUBLIN*        CLOUDY    34  29  82 CALM      30.24S
MARION*        CLOUDY    34  29  82 NE5       30.22S
HILLSVILLE*    CLOUDY    32  28  84 CALM      30.18F
RICHLANDS*     CLOUDY    32  28  85 CALM      30.17S
WISE*          CLOUDY    34  28  80 S9        30.18S
ABINGDON*      CLOUDY    38  30  71 NE3       30.19F
$$

MDZ021>025-VAZ099-100-040900-
SOUTHERN MARYLAND AND THE DELMARVA PENINSULA

CITY           SKY/WX    TMP DP  RH WIND       PRES   REMARKS
PATUXENT RIVER CLOUDY    37  28  70 W9        30.27S
BAY BRIDGE APT PTCLDY    41  30  65 W13       30.27R
LEONARDTOWN    CLOUDY    36  28  75 W3        30.29S
DOVER          CLOUDY    43  34  71 W9        30.23R
GEORGETOWN     CLOUDY    40  31  70 W5        30.26R
EASTON         CLOUDY    41  31  67 NW6       30.30S
CAMBRIDGE      CLOUDY    37  32  81 NW5       30.25F
SALISBURY      PTCLDY    37  31  78 W5        30.26R
OCEAN CITY     CLEAR     37  30  75 NW5       30.25S
WALLOPS ISLAND PTCLDY    37  32  82 NW7       30.27R
ACCOMACK*      CLEAR     41  34  76 N6        30.26F
$$

NCZ012>017-030>032-040900-
NORTH CENTRAL AND EASTERN NORTH CAROLINA

CITY           SKY/WX    TMP DP  RH WIND       PRES   REMARKS
ROANOKE RAPIDS FAIR      39  32  75 NE7       30.27S
RALEIGH        CLOUDY    44  31  60 N3        30.27R
ELIZABETH CITY CLOUDY    43  34  70 N12       30.26F
AHOSKIE*       CLOUDY    39  32  75 N5        30.27F
EDENTON*       CLOUDY    42  35  74 CALM      30.27S
CURRITUCK*     CLOUDY    42  34  74 NW3       30.27F
KILL DEVIL HLS CLOUDY    45  39  79 NW3       30.24F
MANTEO         CLOUDY    46  38  74 N6        30.25F
CAPE HATTERAS  CLOUDY    49  37  63 VRB5      30.24F
TARBORO*       NOT AVBL
GOLDSBORO      MOCLDY    44  36  75 CALM      30.24R
WASHINGTON     CLOUDY    41  35  80 N3        30.26F
GREENVILLE     CLOUDY    41  37  87 N3        30.26S
NEW BERN       CLOUDY    44  36  73 N3        30.26S
WILMINGTON     CLOUDY    45  37  73 NE6       30.24S
$$

VAZ048-040900-
ELSEWHERE

CITY           SKY/WX    TMP DP  RH WIND       PRES   REMARKS
HARRISBURG PA  MOCLDY    41  33  73 NW9       30.25R
BALTIMORE      MOCLDY    37  29  72 W8        30.27R
ANNAPOLIS      PTCLDY    42  30  62 W5        30.27R
ANDREWS AFB    CLOUDY    38  27  63 NW12      30.26S
PHILADELPHIA   MOCLDY    44  24  45 N10       30.23R
HENDERSON NC   CLOUDY    37  29  74 CALM      30.27R
GREENSBORO     CLOUDY    42  29  59 NE7       30.24S
ROCKY MOUNT    CLOUDY    42  35  76 N8        30.27R
$$

VAZ100-040900-
MARINE

STATION/POSITION TIME  TEMP    WIND        PRES    WAVE   SWELL
                       AIR SEA DIR/SP/G            HT/PER HT/PER
                 (UTC) (F)     (DEG/KT/KT) (MB)    (FT/S) (FT/S)
BRANDYWINE LGT   0748   44     300/ 18/ 21   N/A
CAPE MAY NJ      0748   45 47  300/ 13/ 20 1023.3R
LEWES DE         0748   43 48  290/ 11/ 14 1023.9R
OCEAN-CITY-INLET 0748   40 50  330/ 10/ 12 1024.5R
WACHAPREAGUE VA  0748   39 47  330/  2/  2 1024.7F
THOMAS POINT MD  0800   41 49  300/ 14/ 16   N/A
GOOSES REEF MD   0750   43     330/ 16/ 17 1025.4F
COVE POINT MD    0748   40     310/  7/ 11 1025.5R
SOLOMONS ISLAND  0748   41 51  310/  6/  8   N/A
BISHOPS HEAD MD  0748   40 44  320/  8/ 11 1025.0F
PINEY POINT MD   0748          340/ 14/ 16   N/A
POTOMAC MD       0750   42     330/ 14/ 16 1024.5R
CAMBRIDGE MD     0748   42 47  290/  8/ 13 1024.2S
LEWISETTA VA     0748   42 49  340/  7/  9 1025.0S
RAPPAHANNOCK LGT 0748          340/ 14/ 16 1025.2F
STINGRAY PT      0750   43     350/ 12/ 14 1025.5F
YORK RVR RNG VA  0748   41     330/ 10/ 11 1024.6F
YORKTOWN VA      0748   42 52  320/ 10/ 11 1024.9F
JAMESTOWN VA     0750   40     350/  4/  6   N/A
DOMINION TERM VA 0748   42     350/  3/  7 1025.2F
KIPTOPEKE VA     0748      51   20/  3/  5   N/A
CHES BAY BRIDGE  0748   45 53  360/ 12/ 14 1024.9S
CAPE HENRY VA    0748   45     350/ 13/ 16   N/A
WILLOUBY STN VA  0748   42     350/ 12/ 14 1025.9F
S CRANEY ISL VA  0748   42     350/  8/ 12 1025.0F
CAPE HENRY BUOY  0742      56                N/A     3/ 5
1ST LANDING BUOY 0750   46                 1025.3R
CAPE CHARLES BUO 0756      55                N/A     3/ 5
OFFSHORE WE BUOY 0751      56                N/A     4/ 6
64NM E OF VA BCH 0750   50 60  360/ 16/ 19 1023.5F   6/ 6   3/ 7
DUCK PIER NC     0748   47 56  330/ 11/ 13 1023.7F
44100 DUCK FRF   0735      57                N/A     4/ 6
OREGON INLET NC  0736   46 53  330/  6/ 10 1024.1F
HATTERAS NC      0748   49 57  350/ 13/ 15 1023.4F
DIAMOND SHLS NC  0750   53 75   20/ 14/ 19 1023.8F   5/ 9   3/ 9
CAPE LOOKOUT NC  0800   49      10/  9/ 11 1023.4F
$$




USA.gov is the U.S. government's official web portal to all federal, state and local government web resources and services.